Time,TemperatureF,DewpointF,PressureIn,WindDirection,WindDirectionDegrees,WindSpeedMPH,WindSpeedGustMPH,Humidity,HourlyPrecipIn,Conditions,Clouds,dailyrainin,SoftwareType,DateUTC
2013-07-12 09:55:00,61.0,51.0,30.02,SSE,160,0.0,3.0,69,0.00,,,0.00,,2013-07-12 17:55:00,
2013-07-12 10:12:00,63.0,49.0,30.02,SSW,199,0.0,4.0,60,0.00,,,0.00,,2013-07-12 18:12:00,
2013-07-12 10:23:00,63.0,49.0,30.02,SSW,199,0.0,4.0,60,0.00,,,0.00,,2013-07-12 18:23:00,
2013-07-12 10:32:00,63.0,49.0,30.02,SSW,199,0.0,4.0,60,0.00,,,0.00,,2013-07-12 18:32:00,
2013-07-12 10:53:00,64.0,49.0,30.02,SW,231,1.0,4.0,58,0.00,,,0.00,,2013-07-12 18:53:00,
2013-07-12 11:03:00,64.0,49.0,30.02,SW,231,1.0,4.0,58,0.00,,,0.00,,2013-07-12 19:03:00,
2013-07-12 11:13:00,64.0,49.0,30.02,SW,231,1.0,4.0,58,0.00,,,0.00,,2013-07-12 19:13:00,
2013-07-12 11:22:00,66.0,47.0,30.01,SW,230,1.0,4.0,50,0.00,,,0.00,,2013-07-12 19:22:00,
2013-07-12 11:32:00,66.0,47.0,30.01,SW,230,1.0,4.0,50,0.00,,,0.00,,2013-07-12 19:32:00,
2013-07-12 11:44:00,69.0,46.0,30.01,South,171,1.0,3.0,44,0.00,,,0.00,,2013-07-12 19:44:00,
2013-07-12 12:02:00,69.0,46.0,30.01,South,171,1.0,3.0,44,0.00,,,0.00,,2013-07-12 20:02:00,
2013-07-12 12:12:00,71.0,45.0,30.01,SSE,158,1.0,3.0,40,0.00,,,0.00,,2013-07-12 20:12:00,
2013-07-12 12:22:00,71.0,45.0,30.01,SSE,158,1.0,3.0,40,0.00,,,0.00,,2013-07-12 20:22:00,
2013-07-12 12:33:00,71.0,45.0,30.01,SSE,158,1.0,3.0,40,0.00,,,0.00,,2013-07-12 20:33:00,
2013-07-12 12:53:00,73.0,45.0,30.01,SSW,209,1.0,3.0,37,0.00,,,0.00,,2013-07-12 20:53:00,
2013-07-12 13:02:00,73.0,45.0,30.01,SSW,209,1.0,3.0,37,0.00,,,0.00,,2013-07-12 21:02:00,
2013-07-12 13:13:00,75.0,48.0,30.00,SSW,203,0.0,4.0,38,0.00,,,0.00,,2013-07-12 21:13:00,
2013-07-12 13:22:00,75.0,48.0,30.00,SSW,203,0.0,4.0,38,0.00,,,0.00,,2013-07-12 21:22:00,
2013-07-12 13:33:00,75.0,48.0,30.00,SSW,203,0.0,4.0,38,0.00,,,0.00,,2013-07-12 21:33:00,
2013-07-12 13:43:00,75.0,48.0,30.00,SSW,203,0.0,4.0,38,0.00,,,0.00,,2013-07-12 21:43:00,
2013-07-12 14:22:00,76.0,44.0,29.99,SSW,193,1.0,5.0,32,0.00,,,0.00,,2013-07-12 22:22:00,
2013-07-12 14:33:00,76.0,44.0,29.99,SSW,193,1.0,5.0,32,0.00,,,0.00,,2013-07-12 22:33:00,
2013-07-12 14:43:00,79.0,47.0,29.98,North,11,0.0,2.0,32,0.00,,,0.00,,2013-07-12 22:43:00,
2013-07-12 14:52:00,79.0,47.0,29.98,North,11,0.0,2.0,32,0.00,,,0.00,,2013-07-12 22:52:00,
2013-07-12 15:02:00,79.0,47.0,29.98,North,11,0.0,2.0,32,0.00,,,0.00,,2013-07-12 23:02:00,
2013-07-12 15:12:00,79.0,47.0,29.98,North,11,0.0,2.0,32,0.00,,,0.00,,2013-07-12 23:12:00,
2013-07-12 15:22:00,78.0,44.0,29.98,South,181,1.0,4.0,30,0.00,,,0.00,,2013-07-12 23:22:00,
2013-07-12 15:33:00,78.0,44.0,29.98,South,181,1.0,4.0,30,0.00,,,0.00,,2013-07-12 23:33:00,
2013-07-12 15:53:00,78.0,46.0,29.97,South,171,1.0,6.0,32,0.00,,,0.00,,2013-07-12 23:53:00,
2013-07-12 16:03:00,78.0,46.0,29.97,South,171,1.0,6.0,32,0.00,,,0.00,,2013-07-13 00:03:00,
2013-07-12 16:22:00,79.0,44.0,29.96,South,184,1.0,4.0,29,0.00,,,0.00,,2013-07-13 00:22:00,
2013-07-12 16:32:00,79.0,44.0,29.96,South,184,1.0,4.0,29,0.00,,,0.00,,2013-07-13 00:32:00,
2013-07-12 16:44:00,79.0,44.0,29.96,South,184,1.0,4.0,29,0.00,,,0.00,,2013-07-13 00:44:00,
2013-07-12 16:52:00,77.0,43.0,29.96,SSW,199,1.0,3.0,30,0.00,,,0.00,,2013-07-13 00:52:00,
2013-07-12 17:02:00,77.0,43.0,29.96,SSW,199,1.0,3.0,30,0.00,,,0.00,,2013-07-13 01:02:00,
2013-07-12 17:11:00,77.0,43.0,29.96,SSW,199,1.0,3.0,30,0.00,,,0.00,,2013-07-13 01:11:00,
2013-07-12 17:22:00,77.0,43.0,29.96,SSW,199,1.0,3.0,30,0.00,,,0.00,,2013-07-13 01:22:00,
2013-07-12 17:32:00,78.0,45.0,29.95,NNW,338,0.0,2.0,31,0.00,,,0.00,,2013-07-13 01:32:00,
2013-07-12 17:48:00,78.0,45.0,29.95,NNW,338,0.0,2.0,31,0.00,,,0.00,,2013-07-13 01:48:00,
2013-07-12 17:56:00,78.0,45.0,29.95,NNW,338,0.0,2.0,31,0.00,,,0.00,,2013-07-13 01:56:00,
2013-07-12 19:24:00,78.0,38.0,29.93,West,273,0.0,2.0,24,0.00,,,0.00,,2013-07-13 03:24:00,
2013-07-12 19:44:00,78.0,38.0,29.93,West,273,0.0,2.0,24,0.00,,,0.00,,2013-07-13 03:44:00,
2013-07-12 19:53:00,78.0,38.0,29.93,West,273,0.0,2.0,24,0.00,,,0.00,,2013-07-13 03:53:00,